Location: Seagrave Observatory
(41.8500°N, 71.5833°W)
Time: 12:42:55
(UTC-05:00)

Daily predictions for brighter satellites

Satellite Brightness Start Highest point End
(mag) Time Altitude Azimuth Time Altitude Azimuth Time Altitude Azimuth
Cosmos 1743 2.8 16:42:53 10° N 16:46:44 60° E 16:50:35 10° SSE
CZ-4 R/B 2.1 16:47:43 10° SE 16:51:09 31° ENE 16:54:39 10° N
Meteor 1-19 Rocket 4.4 16:45:42 10° S 16:51:17 60° E 16:56:59 10° NNE
Cosmos 2082 3.9 16:46:27 10° NNW 16:51:53 47° ENE 16:57:17 10° SE
Ariane Rocket 3.1 16:47:20 10° SSE 16:52:14 53° ENE 16:57:09 10° N
USA 238 DEB 3.8 16:47:33 10° NNW 16:54:42 77° NE 17:01:53 10° SE
USA 238 3.8 16:47:40 10° NNW 16:54:48 76° NE 17:01:59 10° SE
SMAP 3.1 16:57:05 10° SSE 17:01:39 62° ENE 17:06:16 10° N
Cosmos 2227 Rocket 2.2 16:57:17 10° NNW 17:02:58 73° ENE 17:08:36 10° SSE
ERS-2 3.7 17:01:12 10° ESE 17:03:30 16° ENE 17:05:49 10° NNE
Cosmos 1536 Rocket 3.8 16:59:45 10° SSE 17:03:56 49° E 17:08:07 10° NNE
CORIOLIS 4.2 16:59:18 10° SSE 17:04:35 59° ENE 17:09:53 10° N
Cosmos 1269 Rocket 4.4 16:59:39 10° N 17:04:42 42° ENE 17:09:42 10° SE
Cosmos 1125 Rocket 3.7 16:59:47 10° S 17:04:57 55° ESE 17:10:07 10° NNE
Cosmos 1048 Rocket 4.1 17:07:32 10° NNW 17:12:53 61° ENE 17:18:10 10° SSE
Cosmos 389 Rocket 4.1 17:13:05 10° NNW 17:16:19 37° W 17:19:31 10° SSW
Meteor 2-9 Rocket 4.1 17:11:06 10° N 17:16:36 70° E 17:21:55 10° SSE
ALOS 3.2 17:13:00 10° ESE 17:16:51 26° ENE 17:20:43 10° NNE
Cosmos 372 Rocket 4.0 17:11:43 10° S 17:16:53 68° ESE 17:22:02 10° NNE
Cosmos 1271 Rocket 3.5 17:14:12 10° NNW 17:17:56 54° W 17:21:42 10° S
SKYMED 2 4.4 17:14:39 10° NNE 17:18:33 31° E 17:22:24 10° SSE
Cosmos 1980 Rocket 3.2 17:15:12 10° SSE 17:19:49 26° ESE 17:23:14 15° NE
NOSS 3-2 (A) 4.0 17:15:20 10° NNW 17:22:52 70° NE 17:31:03 10° SE
Meteor 1-23 Rocket 4.3 17:22:28 10° S 17:28:05 58° E 17:33:39 10° NNE
MOS 1 4.5 17:23:53 10° SE 17:29:18 48° ENE 17:34:44 10° N
Cosmos 2297 Rocket 2.3 17:23:42 10° NNW 17:29:24 82° WSW 17:35:02 10° SSE
Cosmos 1656 3.6 17:24:15 10° SSW 17:29:49 83° ESE 17:35:21 10° NNE
NOSS 3-2 (C) 4.0 17:23:41 10° NNW 17:31:08 63° NE 17:39:16 10° SE
Cosmos 1666 4.3 17:29:55 10° NNW 17:33:24 37° W 17:36:51 10° SSW
Cosmos 2266 Rocket 3.9 17:28:14 10° N 17:34:22 83° E 17:40:33 10° S
ATLAS 3B R/B 3.1 17:28:32 10° NW 17:35:06 62° WSW 17:41:30 10° SSE
ATLAS 2AS CENTAUR R/B 3.9 17:30:08 10° WSW 17:37:38 47° NW 17:45:29 10° NNE
Cosmos 1484 Rocket 4.1 17:34:26 10° S 17:38:16 44° W 17:42:07 10° NNW
Cosmos 1455 Rocket 4.4 17:35:30 10° NNW 17:39:40 42° W 17:43:47 10° SSW
Atlas Centaur 2 4.3 17:38:35 10° WSW 17:41:51 16° SSW 17:44:46 10° SSE
CZ-4 R/B 4.3 17:37:47 10° SSE 17:41:55 79° ENE 17:46:04 10° N
USA 116 3.5 17:43:51 11° N 17:46:49 64° WNW 17:49:52 10° SSW
USA 215 3.6 17:40:26 10° SE 17:46:56 68° SW 17:53:27 10° NW
DELTA 2 R/B (1) 3.8 17:41:38 10° W 17:47:10 66° S 17:51:01 20° ESE
NOAA 12 4.2 17:43:23 10° SE 17:48:28 52° ENE 17:53:33 10° N
YAOGAN 1 2.7 17:45:46 10° S 17:50:06 78° WSW 17:54:27 10° NNW
IRS-1A Rocket 4.4 17:45:12 10° S 17:50:47 76° WSW 17:56:20 10° NNW
PSLV R/B 3.0 17:49:05 10° W 17:52:15 78° S 17:52:53 52° ESE
Abrixas rocket 3.6 17:51:34 10° NW 17:54:19 24° N 17:54:22 24° N
BREEZE-M DEB (TANK) 3.7 17:52:18 10° NW 17:55:18 64° NNE 17:59:36 21° ESE
Meteor 2-4 Rocket 4.4 17:51:41 10° SSW 17:56:58 52° WNW 18:02:13 10° N
NOSS 3-4 (A) 3.4 17:52:31 10° SSW 17:58:44 83° ESE 18:02:56 23° NE
NOSS 3-4 (C) 3.4 17:52:37 10° SSW 17:58:49 82° SE 18:03:01 23° NE
SL-16 R/B 3.8 17:58:37 10° SE 18:00:36 17° SE 18:00:36 17° SE
METEOR-M 4.4 17:57:16 10° S 18:02:35 71° WSW 18:07:56 10° NNW
FENGYUN 3A 3.5 17:58:18 10° SSE 18:03:39 73° ENE 18:09:00 10° N
ISS -0.4 18:02:48 10° WSW 18:03:47 11° SW 18:04:46 10° SSW
Cosmos 2263 Rocket 3.9 18:00:08 10° N 18:01:51 15° NNE 18:01:51 15° NNE
NOSS 2-2 (D) 4.2 18:03:03 10° S 18:06:05 33° SE 18:06:05 33° SE
COSMO-SKYMED 1 2.7 18:02:48 13° N 18:06:43 76° WNW 18:11:02 10° SSW
Cosmos 2322 Rocket 3.8 18:02:53 10° SSE 18:04:44 17° SE 18:04:44 17° SE
RESURS DK-1 2.8 18:04:16 10° S 18:07:48 41° SE 18:07:48 41° SE
SJ 16-02 2.9 18:05:21 10° SW 18:09:20 33° WNW 18:13:21 10° N
DMSP B5D1-3 4.4 18:06:11 22° NNE 18:09:27 65° ESE 18:14:31 10° S
Cosmos 1244 Rocket 4.3 18:04:19 10° N 18:10:29 72° E 18:16:39 10° SSE
Cosmos 2360 4.2 18:05:50 10° S 18:11:29 64° ESE 18:13:53 35° NE
CENTAUR R/B 3.2 18:06:59 10° NNW 18:14:39 55° NE 18:19:24 27° ESE
Cosmos 1697 Rocket 3.2 18:16:25 10° SW 18:21:58 57° WNW 18:25:53 20° N
NOSS 2-2 (E) 3.5 18:18:12 10° SSW 18:21:38 56° SSE 18:21:38 56° SSE
EO 1 Del DPAF 3.8 18:22:11 32° N 18:23:42 56° WNW 18:27:26 10° SSW
CZ-4 R/B 4.1 18:23:26 10° SW 18:26:15 19° W 18:29:07 10° NW
SPOT 3 Rocket 3.9 18:23:37 10° S 18:28:45 65° WSW 18:33:54 10° NNW
NOSS 2-2 (C) 4.0 18:25:10 10° SSW 18:28:01 45° S 18:28:01 45° S
BREEZE-M DEB (TANK) 4.2 18:09:15 10° WNW 18:29:25 79° SSW 18:31:09 42° SE
Cosmos 1553 Rocket 3.9 18:24:13 10° S 18:30:35 69° E 18:34:27 25° NNE
SL-08 R/B 4.3 18:24:22 10° N 18:30:39 68° E 18:36:47 10° SSE
Cosmos 1025 Rocket 3.9 18:27:18 10° SSW 18:31:27 47° WNW 18:34:11 20° NNW
Cosmos 1417 Rocket 4.3 18:27:46 10° S 18:33:55 84° E 18:38:48 18° N
ERS-2 3.8 18:33:33 10° SSW 18:36:54 34° W 18:40:16 10° NNW
Okean 1-7 Rocket 4.2 18:33:20 10° SSW 18:37:39 55° W 18:39:24 33° NNW
Cosmos 494 Rocket 4.3 18:33:42 10° NNW 18:38:56 65° WSW 18:44:06 10° S
Thor Agena Rocket 4.1 18:40:38 45° SSE 18:40:38 45° SSE 18:44:27 10° S
Cosmos 2251 Rocket 3.4 18:36:17 10° NNW 18:41:36 88° ENE 18:42:21 66° SSE
Cosmos 2084 4.3 18:37:51 10° WSW 18:41:44 41° NW 18:41:44 41° NW
Gblst 52 Del rocket 4.5 18:36:27 10° WNW 18:42:08 71° SW 18:44:12 43° SSE
Cosmos 1745 Rocket 3.8 18:37:34 10° N 18:43:46 70° E 18:50:01 10° SSE
FengYun 1-2 T 4.3 18:48:27 10° S 18:54:03 79° WSW 18:59:45 10° NNW
ALOS 4.0 18:49:58 10° SSW 18:54:08 32° W 18:58:21 10° NNW
Cosmos 1980 Rocket 3.1 18:58:05 10° SW 19:03:31 46° WNW 19:05:03 37° NNW
Cosmos 2344 3.8 19:25:23 10° SSW 19:31:20 58° SSW 19:31:20 58° SSW
SL-16 R/B 4.1 19:40:31 10° SW 19:42:32 22° SW 19:42:32 22° SW
Cosmos 2322 Rocket 4.3 19:44:58 10° SW 19:46:37 20° SW 19:46:37 20° SW
CENTAUR R/B 4.0 19:57:57 10° NW 20:05:23 42° WSW 20:06:43 39° SW
